Regional Weather Roundup
Issued by NWS Midland/Odessa, TX

Skip options and go directly to product.
Home | Oldest Version | Previous Version | Current Version | All | Graphics & Text | Save Text | Print | Product List | Glossary On

Skip product version selection by date and time.   
455
ASUS44 KMAF 310010
RWRMAF
MIDLAND AREA WEATHER ROUNDUP
NATIONAL WEATHER SERVICE MIDLAND TX
700 PM CDT SUN AUG 30 2015

...IN SOUTHWEST TEXAS AND SOUTHEAST NEW MEXICO...

CITY           SKY/WX    TMP DP  RH WIND       PRES   REMARKS
ALPINE         MOSUNNY   84  48  28 SE7       30.13S
ANDREWS        FAIR      85  56  36 CALM      30.03S
ARTESIA        SUNNY     88  48  25 SE12      30.02S
BIG SPRING     SUNNY     88  51  28 SW3       30.02F
CARLSBAD       SUNNY     91  46  21 S8        29.99S
DRYDEN           N/A     90  55  30 E7G21     29.97S
FORT STOCKTON  SUNNY     89  49  25 SE9G18    30.00S
GUAD PASS      SUNNY     80  46  30 E16G26    30.16F
HOBBS          SUNNY     84  48  28 SE6       30.05F
MARFA          MOSUNNY   84  48  28 E12       30.12S
MIDLAND AIRPK  SUNNY     90  50  25 SE14      30.01F
MIDLAND INTL   SUNNY     90  50  25 SE9       30.01S
ODESSA         MOSUNNY   89  48  24 SE9       30.02S
PECOS          SUNNY     92  47  21 E10       29.95F
PRESIDIO       NOT AVBL
SEMINOLE       SUNNY     88  46  23 S6        30.04S
SNYDER         MOSUNNY   89  53  28 SW3       30.00S
WINK           SUNNY     91  50  24 E12       29.97F
$$
...OTHER STATIONS IN TEXAS...

CITY           SKY/WX    TMP DP  RH WIND       PRES   REMARKS
ABILENE        MOSUNNY   90  56  31 SW6       29.97S
AMARILLO       SUNNY     84  52  33 S9        30.03F HAZE
AUSTIN         PTSUNNY   88  63  43 SE9       29.95S
BROWNSVILLE    MOSUNNY   84  73  69 SE14      29.92F
CORPUS CHRISTI MOSUNNY   88  72  58 SE18      29.92S
DALLAS FTW     PTSUNNY   91  60  35 S16       29.92R
DEL RIO        CLOUDY    92  57  30 E6        29.91S
EL PASO        MOSUNNY   90  47  22 CALM      30.00F
HOUSTON INT    PTCLDY    85  69  58 E9        29.95S
LUBBOCK        SUNNY     87  48  25 SE13      30.02S
SAN ANGELO     MOSUNNY   82  61  48 S16       29.99S
SAN ANTONIO    MOSUNNY   90  61  37 E8        29.96S
WACO           CLOUDY    84  66  54 SE3       29.95F
WICHITA FALLS  NOT AVBL
$$
...OTHER LOCATIONS IN NEW MEXICO...

CITY           SKY/WX    TMP DP  RH WIND       PRES   REMARKS
ALAMAGORDO     MOSUNNY   91  50  24 S10       30.02F
ALBUQUERQUE    MOSUNNY   91  43  18 NW6       30.07F
CANNON AFB     SUNNY     88  45  22 SW8       30.05F
CLOVIS         SUNNY     86  46  25 S12       30.06F
HOLLOMAN AFB   MOSUNNY   91  50  24 N9        30.00F
ROSWELL        SUNNY     90  45  21 S12       30.01F
RUIDOSO        MOSUNNY   75  46  35 MISG      30.26S
SANTA FE       MOSUNNY   84  34  16 SW5       30.14F
TRUTH OR CONSE MOSUNNY   89  47  23 NW14G22   30.05F
TUCUMCARI      SUNNY     89  50  26 SW13      30.00F
$$

USA.gov is the U.S. government's official web portal to all federal, state and local government web resources and services.